Volver al catálogo

THOR ABLESTAR DEB

ActivoLEO
NORAD 333·DEBRIS·🇺🇸 United States

Lanzado Jun 29, 1961 desde Cape Canaveral Space Force Station

Loading…

Próximos Pases (próximas 24 horas)

TLE

ActualizadoSource: Space-Track

Época: Sep 14, 2026, 00:19 UTC

1 00333U 61015DK  26257.01346386  .00005385  00000-0  61600-3 0  9992
2 00333  66.6968 251.1430 0040150 224.5754 135.2142 14.86236693402010

Sigue THOR ABLESTAR DEB en tiempo real con AllMySat

Download on the App Store